User: anonymous   Login
Location: Trois-Rivi�res
(46.3500°N, 72.5500°W)
Time: 15:11:15
(UTC-04:00)
Language:

Cosmos 1975 - Orbit

View from above orbital plane
View from above orbital plane
View from above satellite
View from above satellite

Ground track
Ground track

The orbit data is extracted from the following two-line orbital elements,

1 19573U 88093A   17141.72782528 +.00000587 +00000-0 +40194-4 0  9990
2 19573 082.5214 011.0863 0015280 034.0689 326.1514 15.04151995534693
Epoch (UTC): 21 May 2017 17:28:04
Eccentricity: 0.0015280
inclination: 82.5214°
perigee height: 543 km
apogee height: 565 km
right ascension of ascending node: 11.0863°
argument of perigee: 34.0689°
revolutions per day: 15.04151995
mean anomaly at epoch: 326.1514°
orbit number at epoch: 53469

The dashed part of the orbit path shows where the satellite is in the earth's shadow,  

DLR